Time,TemperatureF,DewpointF,PressureIn,WindDirection,WindDirectionDegrees,WindSpeedMPH,WindSpeedGustMPH,Humidity,HourlyPrecipIn,Conditions,Clouds,dailyrainin,SolarRadiationWatts/m^2,SoftwareType,DateUTC
2013-06-02 00:01:00,58.0,30.0,-100.00,East,93,4.0,6.0,34,0.00,,,-99.99,0.000000,,2013-06-02 06:01:00,
2013-06-02 00:12:00,57.0,32.0,-100.00,East,92,3.0,4.0,39,0.00,,,-99.99,0.000000,,2013-06-02 06:12:00,
2013-06-02 00:21:00,56.0,29.0,-100.00,ESE,113,3.0,4.0,36,0.00,,,-99.99,0.000000,,2013-06-02 06:21:00,
2013-06-02 00:31:00,55.0,28.0,-100.00,SSE,152,3.0,6.0,35,0.00,,,-99.99,0.000000,,2013-06-02 06:31:00,
2013-06-02 00:41:00,55.0,31.0,-100.00,SE,143,3.0,5.0,40,0.00,,,-99.99,0.000000,,2013-06-02 06:41:00,
2013-06-02 00:51:00,54.0,29.0,-100.00,ESE,112,3.0,5.0,39,0.00,,,-99.99,0.000000,,2013-06-02 06:51:00,
2013-06-02 01:01:00,53.0,29.0,-100.00,ESE,117,3.0,5.0,39,0.00,,,-99.99,0.000000,,2013-06-02 07:01:00,
2013-06-02 01:11:00,54.0,28.0,-100.00,SE,134,3.0,5.0,36,0.00,,,-99.99,0.000000,,2013-06-02 07:11:00,
2013-06-02 01:21:00,53.0,30.0,-100.00,ESE,123,3.0,4.0,41,0.00,,,-99.99,0.000000,,2013-06-02 07:21:00,
2013-06-02 01:31:00,51.0,31.0,-100.00,ESE,117,3.0,3.0,45,0.00,,,-99.99,0.000000,,2013-06-02 07:31:00,
2013-06-02 01:42:00,50.0,36.0,-100.00,SSE,153,2.0,3.0,58,0.00,,,-99.99,0.000000,,2013-06-02 07:42:00,
2013-06-02 01:52:00,48.0,30.0,-100.00,ESE,109,2.0,3.0,49,0.00,,,-99.99,0.000000,,2013-06-02 07:52:00,
2013-06-02 02:01:00,48.0,33.0,-100.00,South,184,2.0,4.0,57,0.00,,,-99.99,0.000000,,2013-06-02 08:01:00,
2013-06-02 02:11:00,48.0,32.0,-100.00,SSE,159,3.0,4.0,55,0.00,,,-99.99,0.000000,,2013-06-02 08:11:00,
2013-06-02 02:21:00,47.0,34.0,-100.00,SE,146,2.0,3.0,59,0.00,,,-99.99,0.000000,,2013-06-02 08:21:00,
2013-06-02 02:31:00,48.0,31.0,-100.00,SSE,151,2.0,3.0,52,0.00,,,-99.99,0.000000,,2013-06-02 08:31:00,
2013-06-02 02:41:00,48.0,32.0,-100.00,SSW,203,2.0,3.0,53,0.00,,,-99.99,0.000000,,2013-06-02 08:41:00,
2013-06-02 02:50:00,51.0,31.0,-100.00,South,170,4.0,7.0,47,0.00,,,-99.99,0.000000,,2013-06-02 08:50:00,
2013-06-02 02:51:00,48.0,32.0,-100.00,SSE,149,2.0,4.0,54,0.00,,,-99.99,0.000000,,2013-06-02 08:51:00,
2013-06-02 03:01:00,49.0,32.0,-100.00,SSW,198,3.0,5.0,52,0.00,,,-99.99,0.000000,,2013-06-02 09:01:00,
2013-06-02 03:11:00,51.0,31.0,-100.00,South,170,4.0,7.0,47,0.00,,,-99.99,0.000000,,2013-06-02 09:11:00,
2013-06-02 03:21:00,51.0,31.0,-100.00,South,170,4.0,7.0,47,0.00,,,-99.99,0.000000,,2013-06-02 09:21:00,
2013-06-02 03:32:00,51.0,31.0,-100.00,South,170,4.0,7.0,47,0.00,,,-99.99,0.000000,,2013-06-02 09:32:00,
2013-06-02 03:42:00,51.0,31.0,-100.00,South,170,4.0,7.0,47,0.00,,,-99.99,0.000000,,2013-06-02 09:42:00,
2013-06-02 04:23:00,49.0,30.0,-100.00,South,182,3.0,4.0,48,0.00,,,-99.99,0.000000,,2013-06-02 10:23:00,
2013-06-02 04:33:00,50.0,30.0,-100.00,SSW,198,4.0,6.0,46,0.00,,,-99.99,0.000000,,2013-06-02 10:33:00,
2013-06-02 04:42:00,48.0,30.0,-100.00,SSW,211,4.0,6.0,50,0.00,,,-99.99,0.000000,,2013-06-02 10:42:00,
2013-06-02 04:52:00,50.0,30.0,-100.00,SSW,198,5.0,7.0,46,0.00,,,-99.99,0.000000,,2013-06-02 10:52:00,
2013-06-02 05:02:00,49.0,29.0,-100.00,South,180,4.0,5.0,45,0.00,,,-99.99,0.000000,,2013-06-02 11:02:00,
2013-06-02 05:11:00,49.0,29.0,-100.00,SSW,198,3.0,4.0,45,0.00,,,-99.99,0.000000,,2013-06-02 11:11:00,
2013-06-02 05:21:00,48.0,30.0,-100.00,SSW,197,3.0,4.0,50,0.00,,,-99.99,0.000000,,2013-06-02 11:21:00,
2013-06-02 05:32:00,47.0,33.0,-100.00,SSW,196,3.0,5.0,56,0.00,,,-99.99,0.000000,,2013-06-02 11:32:00,
2013-06-02 05:42:00,46.0,33.0,-100.00,SSW,193,3.0,5.0,60,0.00,,,-99.99,0.000000,,2013-06-02 11:42:00,
2013-06-02 05:52:00,45.0,33.0,-100.00,South,174,2.0,5.0,63,0.00,,,-99.99,0.000000,,2013-06-02 11:52:00,
2013-06-02 06:01:00,45.0,33.0,-100.00,SW,225,3.0,5.0,62,0.00,,,-99.99,0.000000,,2013-06-02 12:01:00,
2013-06-02 06:11:00,46.0,32.0,-100.00,SSW,197,3.0,6.0,58,0.00,,,-99.99,1.000000,,2013-06-02 12:11:00,
2013-06-02 06:21:00,46.0,32.0,-100.00,South,175,4.0,5.0,58,0.00,,,-99.99,4.000000,,2013-06-02 12:21:00,
2013-06-02 06:31:00,45.0,33.0,-100.00,South,191,3.0,4.0,62,0.00,,,-99.99,7.000000,,2013-06-02 12:31:00,
2013-06-02 06:41:00,46.0,33.0,-100.00,SSW,202,4.0,5.0,60,0.00,,,-99.99,11.000000,,2013-06-02 12:41:00,
2013-06-02 06:52:00,45.0,32.0,-100.00,SSE,166,3.0,4.0,62,0.00,,,-99.99,14.000000,,2013-06-02 12:52:00,
2013-06-02 07:01:00,45.0,33.0,-100.00,SSE,161,2.0,4.0,64,0.00,,,-99.99,20.000000,,2013-06-02 13:01:00,
2013-06-02 07:11:00,46.0,33.0,-100.00,SSE,163,3.0,4.0,61,0.00,,,-99.99,26.000000,,2013-06-02 13:11:00,
2013-06-02 07:21:00,48.0,33.0,-100.00,SSE,157,3.0,4.0,56,0.00,,,-99.99,28.000000,,2013-06-02 13:21:00,
2013-06-02 07:32:00,50.0,34.0,-100.00,South,175,2.0,4.0,55,0.00,,,-99.99,31.000000,,2013-06-02 13:32:00,
2013-06-02 07:41:00,52.0,35.0,-100.00,South,179,3.0,4.0,52,0.00,,,-99.99,58.000000,,2013-06-02 13:41:00,
2013-06-02 07:50:00,57.0,31.0,-100.00,SSW,199,5.0,7.0,37,0.00,,,-99.99,281.000000,,2013-06-02 13:50:00,
2013-06-02 07:52:00,53.0,32.0,-100.00,South,177,3.0,6.0,44,0.00,,,-99.99,210.000000,,2013-06-02 13:52:00,
2013-06-02 08:01:00,56.0,33.0,-100.00,South,180,4.0,7.0,42,0.00,,,-99.99,249.000000,,2013-06-02 14:01:00,
2013-06-02 08:11:00,57.0,31.0,-100.00,SSW,199,5.0,7.0,37,0.00,,,-99.99,281.000000,,2013-06-02 14:11:00,
2013-06-02 08:21:00,57.0,31.0,-100.00,SSW,199,5.0,7.0,37,0.00,,,-99.99,281.000000,,2013-06-02 14:21:00,
2013-06-02 08:32:00,57.0,31.0,-100.00,SSW,199,5.0,7.0,37,0.00,,,-99.99,281.000000,,2013-06-02 14:32:00,
2013-06-02 08:41:00,57.0,31.0,-100.00,SSW,199,5.0,7.0,37,0.00,,,-99.99,281.000000,,2013-06-02 14:41:00,
2013-06-02 09:22:00,66.0,36.0,-100.00,South,189,3.0,5.0,33,0.01,,,-99.99,509.000000,,2013-06-02 15:22:00,
2013-06-02 09:33:00,67.0,40.0,-100.00,SSW,207,5.0,9.0,37,0.01,,,-99.99,539.000000,,2013-06-02 15:33:00,
2013-06-02 09:43:00,69.0,36.0,-100.00,East,83,3.0,5.0,30,0.01,,,-99.99,572.000000,,2013-06-02 15:43:00,
2013-06-02 09:53:00,71.0,40.0,-100.00,ENE,67,3.0,5.0,33,0.01,,,-99.99,601.000000,,2013-06-02 15:53:00,
2013-06-02 10:03:00,72.0,37.0,-100.00,ENE,77,3.0,5.0,28,0.01,,,-99.99,632.000000,,2013-06-02 16:03:00,
2013-06-02 10:13:00,74.0,33.0,-100.00,East,82,3.0,4.0,22,0.01,,,-99.99,661.000000,,2013-06-02 16:13:00,
2013-06-02 10:22:00,76.0,37.0,-100.00,East,100,1.0,3.0,25,0.00,,,-99.99,687.000000,,2013-06-02 16:22:00,
2013-06-02 10:32:00,77.0,35.0,-100.00,SW,229,1.0,3.0,22,0.00,,,-99.99,713.000000,,2013-06-02 16:32:00,
2013-06-02 10:42:00,77.0,36.0,-100.00,ESE,115,2.0,4.0,22,0.00,,,-99.99,741.000000,,2013-06-02 16:42:00,
2013-06-02 10:52:00,77.0,37.0,-100.00,SE,139,2.0,4.0,23,0.00,,,-99.99,767.000000,,2013-06-02 16:52:00,
2013-06-02 11:02:00,77.0,34.0,-100.00,SSE,152,2.0,4.0,21,0.00,,,-99.99,793.000000,,2013-06-02 17:02:00,
2013-06-02 11:12:00,78.0,31.0,-100.00,SE,142,2.0,4.0,18,0.00,,,-99.99,814.000000,,2013-06-02 17:12:00,
2013-06-02 11:22:00,78.0,31.0,-100.00,SSW,209,3.0,6.0,18,0.00,,,-99.99,837.000000,,2013-06-02 17:22:00,
2013-06-02 11:32:00,79.0,40.0,-100.00,South,182,3.0,6.0,25,0.00,,,-99.99,857.000000,,2013-06-02 17:32:00,
2013-06-02 11:42:00,80.0,33.0,-100.00,South,183,4.0,8.0,18,0.00,,,-99.99,877.000000,,2013-06-02 17:42:00,
2013-06-02 11:51:00,80.0,36.0,-100.00,South,191,5.0,8.0,20,0.00,,,-99.99,897.000000,,2013-06-02 17:51:00,
2013-06-02 12:01:00,82.0,38.0,-100.00,South,189,4.0,9.0,21,0.00,,,-99.99,915.000000,,2013-06-02 18:01:00,
2013-06-02 12:11:00,82.0,31.0,-100.00,SW,223,5.0,9.0,16,0.00,,,-99.99,934.000000,,2013-06-02 18:11:00,
2013-06-02 12:21:00,83.0,39.0,-100.00,SSW,213,6.0,10.0,21,0.00,,,-99.99,948.000000,,2013-06-02 18:21:00,
2013-06-02 12:31:00,83.0,34.0,-100.00,SSW,200,6.0,10.0,17,0.00,,,-99.99,963.000000,,2013-06-02 18:31:00,
2013-06-02 12:42:00,83.0,23.0,-100.00,SSW,202,7.0,11.0,11,0.00,,,-99.99,976.000000,,2013-06-02 18:42:00,
2013-06-02 12:50:00,84.0,26.0,-100.00,SSW,192,8.0,13.0,12,0.00,,,-99.99,1000.000000,,2013-06-02 18:50:00,
2013-06-02 12:52:00,84.0,29.0,-100.00,South,191,7.0,11.0,14,0.00,,,-99.99,985.000000,,2013-06-02 18:52:00,
2013-06-02 13:01:00,84.0,28.0,-100.00,SSW,203,8.0,14.0,13,0.00,,,-99.99,993.000000,,2013-06-02 19:01:00,
2013-06-02 13:11:00,84.0,26.0,-100.00,SSW,192,8.0,13.0,12,0.00,,,-99.99,1000.000000,,2013-06-02 19:11:00,
2013-06-02 13:21:00,84.0,26.0,-100.00,SSW,192,8.0,13.0,12,0.00,,,-99.99,1000.000000,,2013-06-02 19:21:00,
2013-06-02 13:41:00,84.0,26.0,-100.00,SSW,192,8.0,13.0,12,0.00,,,-99.99,1000.000000,,2013-06-02 19:41:00,
2013-06-02 14:22:00,86.0,33.0,-100.00,SSW,197,5.0,10.0,15,0.00,,,-99.99,1006.000000,,2013-06-02 20:22:00,
2013-06-02 14:32:00,86.0,31.0,-100.00,South,187,8.0,11.0,14,0.00,,,-99.99,998.000000,,2013-06-02 20:32:00,
2013-06-02 14:42:00,86.0,27.0,-100.00,South,190,7.0,12.0,12,0.00,,,-99.99,993.000000,,2013-06-02 20:42:00,
2013-06-02 14:52:00,86.0,28.0,-100.00,South,189,9.0,14.0,12,0.00,,,-99.99,988.000000,,2013-06-02 20:52:00,
2013-06-02 15:01:00,86.0,30.0,-100.00,SSW,194,8.0,14.0,13,0.00,,,-99.99,974.000000,,2013-06-02 21:01:00,
2013-06-02 15:11:00,87.0,28.0,-100.00,SSW,198,6.0,12.0,12,0.00,,,-99.99,961.000000,,2013-06-02 21:11:00,
2013-06-02 15:21:00,87.0,26.0,-100.00,South,190,8.0,12.0,11,0.00,,,-99.99,950.000000,,2013-06-02 21:21:00,
2013-06-02 15:33:00,87.0,28.0,-100.00,South,191,8.0,15.0,12,0.00,,,-99.99,932.000000,,2013-06-02 21:33:00,
2013-06-02 15:42:00,87.0,24.0,-100.00,SSW,198,10.0,15.0,10,0.00,,,-99.99,917.000000,,2013-06-02 21:42:00,
2013-06-02 15:53:00,86.0,23.0,-100.00,SSW,199,12.0,21.0,10,0.00,,,-99.99,900.000000,,2013-06-02 21:53:00,
2013-06-02 16:02:00,87.0,26.0,-100.00,SW,220,9.0,17.0,11,0.00,,,-99.99,880.000000,,2013-06-02 22:02:00,
2013-06-02 16:12:00,87.0,29.0,-100.00,SW,222,8.0,14.0,12,0.00,,,-99.99,857.000000,,2013-06-02 22:12:00,
2013-06-02 16:22:00,87.0,30.0,-100.00,WSW,239,8.0,15.0,13,0.00,,,-99.99,832.000000,,2013-06-02 22:22:00,
2013-06-02 16:33:00,87.0,34.0,-100.00,SSW,211,8.0,12.0,15,0.00,,,-99.99,811.000000,,2013-06-02 22:33:00,
2013-06-02 16:42:00,88.0,29.0,-100.00,SW,219,6.0,10.0,12,0.00,,,-99.99,798.000000,,2013-06-02 22:42:00,
2013-06-02 16:52:00,88.0,22.0,-100.00,SSW,209,8.0,17.0,9,0.00,,,-99.99,763.000000,,2013-06-02 22:52:00,
2013-06-02 17:02:00,87.0,26.0,-100.00,SSW,205,11.0,15.0,11,0.00,,,-99.99,736.000000,,2013-06-02 23:02:00,
2013-06-02 17:12:00,87.0,28.0,-100.00,SSW,202,9.0,15.0,12,0.00,,,-99.99,711.000000,,2013-06-02 23:12:00,
2013-06-02 17:22:00,87.0,19.0,-100.00,SSW,199,10.0,15.0,8,0.00,,,-99.99,682.000000,,2013-06-02 23:22:00,
2013-06-02 17:32:00,88.0,27.0,-100.00,South,191,9.0,12.0,11,0.00,,,-99.99,676.000000,,2013-06-02 23:32:00,
2013-06-02 17:42:00,88.0,29.0,-100.00,SW,216,9.0,16.0,12,0.00,,,-99.99,623.000000,,2013-06-02 23:42:00,
2013-06-02 17:50:00,87.0,28.0,-100.00,SW,217,8.0,16.0,12,0.00,,,-99.99,525.000000,,2013-06-02 23:50:00,
2013-06-02 17:52:00,87.0,26.0,-100.00,SSW,199,9.0,16.0,11,0.00,,,-99.99,587.000000,,2013-06-02 23:52:00,
2013-06-02 18:01:00,87.0,22.0,-100.00,SSW,208,10.0,15.0,9,0.00,,,-99.99,559.000000,,2013-06-03 00:01:00,
2013-06-02 18:11:00,87.0,28.0,-100.00,SW,217,8.0,16.0,12,0.00,,,-99.99,525.000000,,2013-06-03 00:11:00,
2013-06-02 18:21:00,87.0,28.0,-100.00,SW,217,8.0,16.0,12,0.00,,,-99.99,525.000000,,2013-06-03 00:21:00,
2013-06-02 18:32:00,87.0,28.0,-100.00,SW,217,8.0,16.0,12,0.00,,,-99.99,525.000000,,2013-06-03 00:32:00,
2013-06-02 18:42:00,87.0,28.0,-100.00,SW,217,8.0,16.0,12,0.00,,,-99.99,525.000000,,2013-06-03 00:42:00,
2013-06-02 19:21:00,85.0,25.0,-100.00,SSW,200,7.0,13.0,11,0.00,,,-99.99,60.000000,,2013-06-03 01:21:00,
2013-06-02 19:32:00,84.0,24.0,-100.00,SSW,196,7.0,11.0,11,0.00,,,-99.99,105.000000,,2013-06-03 01:32:00,
2013-06-02 19:42:00,84.0,24.0,-100.00,SSW,198,8.0,13.0,11,0.00,,,-99.99,116.000000,,2013-06-03 01:42:00,
2013-06-02 19:52:00,84.0,19.0,-100.00,SW,216,8.0,13.0,9,0.00,,,-99.99,51.000000,,2013-06-03 01:52:00,
2013-06-02 20:02:00,84.0,21.0,-100.00,SW,222,8.0,14.0,10,0.00,,,-99.99,34.000000,,2013-06-03 02:02:00,
2013-06-02 20:12:00,83.0,23.0,-100.00,SSW,202,8.0,11.0,11,0.00,,,-99.99,30.000000,,2013-06-03 02:12:00,
2013-06-02 20:22:00,81.0,27.0,-100.00,SSW,203,5.0,8.0,14,0.00,,,-99.99,27.000000,,2013-06-03 02:22:00,
2013-06-02 20:32:00,79.0,26.0,-100.00,SSW,199,6.0,8.0,14,0.00,,,-99.99,23.000000,,2013-06-03 02:32:00,
2013-06-02 20:42:00,79.0,27.0,-100.00,SSW,192,6.0,10.0,15,0.00,,,-99.99,18.000000,,2013-06-03 02:42:00,
2013-06-02 20:51:00,78.0,27.0,-100.00,South,181,6.0,10.0,15,0.00,,,-99.99,11.000000,,2013-06-03 02:51:00,
2013-06-02 21:02:00,77.0,29.0,-100.00,South,188,6.0,10.0,17,0.00,,,-99.99,6.000000,,2013-06-03 03:02:00,
2013-06-02 21:12:00,75.0,27.0,-100.00,South,186,6.0,9.0,17,0.00,,,-99.99,3.000000,,2013-06-03 03:12:00,
2013-06-02 21:21:00,74.0,24.0,-100.00,South,184,6.0,9.0,15,0.00,,,-99.99,1.000000,,2013-06-03 03:21:00,
2013-06-02 21:33:00,74.0,24.0,-100.00,South,185,7.0,11.0,15,0.00,,,-99.99,0.000000,,2013-06-03 03:33:00,
2013-06-02 21:43:00,74.0,25.0,-100.00,SSW,193,7.0,9.0,16,0.00,,,-99.99,0.000000,,2013-06-03 03:43:00,
2013-06-02 21:53:00,74.0,25.0,-100.00,South,183,7.0,10.0,16,0.00,,,-99.99,0.000000,,2013-06-03 03:53:00,
2013-06-02 22:02:00,73.0,24.0,-100.00,South,187,8.0,12.0,16,0.00,,,-99.99,0.000000,,2013-06-03 04:02:00,
2013-06-02 22:12:00,72.0,28.0,-100.00,South,188,9.0,12.0,19,0.00,,,-99.99,0.000000,,2013-06-03 04:12:00,
2013-06-02 22:23:00,71.0,28.0,-100.00,South,188,9.0,11.0,20,0.00,,,-99.99,0.000000,,2013-06-03 04:23:00,
2013-06-02 22:33:00,71.0,28.0,-100.00,South,188,9.0,12.0,20,0.00,,,-99.99,0.000000,,2013-06-03 04:33:00,
2013-06-02 22:42:00,70.0,27.0,-100.00,South,187,9.0,13.0,20,0.00,,,-99.99,0.000000,,2013-06-03 04:42:00,
2013-06-02 22:50:00,71.0,25.0,-100.00,South,188,9.0,13.0,18,0.00,,,-99.99,0.000000,,2013-06-03 04:50:00,
2013-06-02 22:52:00,70.0,25.0,-100.00,South,186,10.0,12.0,18,0.00,,,-99.99,0.000000,,2013-06-03 04:52:00,
2013-06-02 23:02:00,70.0,26.0,-100.00,SSW,198,10.0,14.0,19,0.00,,,-99.99,0.000000,,2013-06-03 05:02:00,
2013-06-02 23:12:00,71.0,25.0,-100.00,South,188,9.0,13.0,18,0.00,,,-99.99,0.000000,,2013-06-03 05:12:00,
2013-06-02 23:22:00,71.0,25.0,-100.00,South,188,9.0,13.0,18,0.00,,,-99.99,0.000000,,2013-06-03 05:22:00,
2013-06-02 23:32:00,71.0,25.0,-100.00,South,188,9.0,13.0,18,0.00,,,-99.99,0.000000,,2013-06-03 05:32:00,
2013-06-02 23:42:00,71.0,25.0,-100.00,South,188,9.0,13.0,18,0.00,,,-99.99,0.000000,,2013-06-03 05:42:00,